Home > Weather > Salalah > Past weeks

Flag for Oman Weather for the Past 2 Weeks in Salalah, Oman

Now
75 °F

Passing clouds.


Feels Like: 78 °F
Forecast: 60 / 83 °F
Wind: 7 mph from Southeast

Location: Salalah Airport

Current Time: Feb 8, 2016 at 11:14:58 AM

Latest Report: Feb 8, 2016 at 10:50 AM


Visibility: N/A

Pressure: 30.09 "Hg

Humidity: 44%

Dew point: 52 °F

Location of SalalahLocation

Historic Weather in Salalah — Graph

°F

Salalah Temperature Yesterday

Maximum temperature yesterday: 79 °F (at 12:50 PM)
Minimum temperature yesterday: 64 °F (at 6:50 AM)
Average temperature yesterday: 72 °F

High & Low Weather Summary for the Past Weeks

 TemperatureHumidityPressure
High88 °F (Feb 4, 3:50 PM)73% (Jan 29, 4:50 AM)30.21 "Hg (Jan 29, 4:50 AM)
Low64 °F (Jan 31, 6:50 AM)6% (Feb 5, 3:50 PM)29.92 "Hg (Jan 26, 3:50 PM)
Average75 °F38%30.06 "Hg
* Reported Jan 24 9:50 AM — Feb 8 9:50 AM, Salalah, Weather by CustomWeather, © 2016

Note: Actual official high and low records may vary slightly from our data, if they occured in-between our weather recording intervals... More about our weather records

Advertising

Salalah Weather History for the Previous 24 Hours

 ConditionsComfort  
Time TempWeatherWind HumidityBarometerVisibility
9:50 AM
Mon, Feb 8
75 °FPassing clouds.5 mph41%30.09 "HgN/A
8:50 AM73 °FPassing clouds.7 mph44%30.07 "HgN/A
7:50 AM68 °FPassing clouds.5 mph53%30.07 "HgN/A
6:50 AM66 °FPassing clouds.5 mph56%30.04 "HgN/A
5:50 AM66 °FPassing clouds.6 mph56%30.04 "HgN/A
4:50 AM66 °FPassing clouds.6 mph56%30.01 "HgN/A
3:50 AM68 °FPassing clouds.6 mph49%30.01 "HgN/A
2:50 AM68 °FPassing clouds.7 mph53%30.01 "HgN/A
1:50 AM68 °FPassing clouds.6 mph53%30.01 "HgN/A
12:50 AM68 °FPassing clouds.5 mph53%30.04 "HgN/A
11:50 PM
Sun, Feb 7
70 °FClear.5 mph50%30.04 "Hg10 mi
10:50 PM72 °FClear.5 mph47%30.07 "Hg10 mi
9:50 PM73 °FClear.2 mph44%30.07 "Hg10 mi
8:50 PM73 °FClear.1 mph47%30.07 "Hg10 mi
7:50 PM75 °FClear.2 mph41%30.04 "Hg10 mi
6:50 PM75 °FClear.6 mph39%30.04 "Hg10 mi
5:50 PM77 °FPassing clouds.8 mph36%30.01 "HgN/A
4:50 PM77 °FSunny.9 mph36%29.98 "Hg10 mi
3:50 PM77 °FPassing clouds.8 mph44%29.98 "HgN/A
2:50 PM77 °FPassing clouds.10 mph44%30.01 "HgN/A
1:50 PM77 °FPassing clouds.9 mph42%30.01 "HgN/A
12:50 PM79 °FPassing clouds.10 mph37%30.04 "HgN/A
11:50 AM77 °FPassing clouds.9 mph39%30.09 "HgN/A
Weather by CustomWeather, © 2016

See weather overviewHow to use our weather pages